Precipitable_Water
0.51 0.52 0.54 0.53 0.53 0.53 0.48 0.40 0.24 0.47 0.52 0.29 0.28 0.19 0.19 0.19 0.16 0.22 0.23 0.23 0.22 0.20 0.23 0.24 0.12 0.14 0.20 0.23 0.20 0.23 0.23 0.23 0.20 0.19 0.24 0.27 0.27 0.27 0.32 0.25 0.25 0.27 0.25 0.26
0.51 0.52 0.53 0.54 0.53 0.54 0.49 0.33 0.31 0.45 0.43 0.18 0.17 0.20 0.19 0.20 0.18 0.22 0.22 0.27 0.28 0.24 0.21 0.24 0.26 0.19 0.20 0.29 0.26 0.23 0.26 0.24 0.18 0.19 0.26 0.27 0.23 0.29 0.32 0.33 0.32 0.26 0.22 0.23
0.51 0.48 0.50 0.52 0.54 0.55 0.51 0.37 0.23 0.32 0.35 0.30 0.23 0.18 0.17 0.16 0.24 0.29 0.28 0.25 0.34 0.28 0.23 0.28 0.29 0.28 0.22 0.28 0.28 0.29 0.31 0.25 0.21 0.15 0.12 0.19 0.19 0.22 0.27 0.31 0.26 0.26 0.27 0.30
0.51 0.49 0.46 0.49 0.53 0.54 0.50 0.38 0.28 0.28 0.21 0.23 0.24 0.25 0.23 0.18 0.18 0.26 0.28 0.26 0.27 0.27 0.22 0.23 0.24 0.26 0.29 0.37 0.31 0.32 0.33 0.25 0.24 0.20 0.19 0.20 0.20 0.19 0.23 0.25 0.24 0.24 0.26 0.30
0.49 0.49 0.44 0.45 0.48 0.52 0.43 0.31 0.30 0.34 0.27 0.27 0.25 0.23 0.20 0.22 0.20 0.23 0.24 0.31 0.28 0.28 0.21 0.26 0.21 0.32 0.38 0.35 0.43 0.34 0.37 0.26 0.26 0.22 0.23 0.21 0.19 0.21 0.22 0.20 0.21 0.23 0.29 0.31
0.46 0.48 0.44 0.42 0.45 0.51 0.39 0.43 0.43 0.37 0.29 0.26 0.24 0.23 0.26 0.29 0.32 0.28 0.33 0.30 0.31 0.31 0.27 0.27 0.30 0.37 0.43 0.38 0.37 0.39 0.37 0.30 0.28 0.22 0.24 0.21 0.20 0.17 0.20 0.23 0.24 0.24 0.22 0.27
0.45 0.47 0.46 0.43 0.42 0.48 0.47 0.45 0.44 0.33 0.22 0.25 0.22 0.24 0.25 0.26 0.28 0.28 0.32 0.39 0.37 0.38 0.40 0.31 0.35 0.36 0.40 0.45 0.41 0.42 0.41 0.32 0.31 0.24 0.27 0.21 0.20 0.25 0.22 0.20 0.22 0.25 0.28 0.30
0.43 0.43 0.47 0.45 0.41 0.46 0.46 0.51 0.43 0.34 0.24 0.25 0.25 0.26 0.26 0.27 0.30 0.32 0.34 0.39 0.40 0.46 0.43 0.29 0.27 0.27 0.32 0.37 0.46 0.40 0.44 0.39 0.31 0.27 0.29 0.25 0.26 0.27 0.23 0.21 0.21 0.27 0.26 0.30
0.40 0.43 0.45 0.46 0.43 0.44 0.50 0.49 0.54 0.42 0.29 0.22 0.28 0.26 0.27 0.26 0.29 0.33 0.36 0.45 0.50 0.50 0.43 0.29 0.21 0.24 0.29 0.30 0.38 0.48 0.46 0.48 0.37 0.30 0.27 0.22 0.22 0.32 0.33 0.30 0.21 0.29 0.30 0.33
0.38 0.41 0.45 0.47 0.44 0.47 0.52 0.49 0.59 0.45 0.31 0.32 0.33 0.27 0.29 0.35 0.33 0.32 0.41 0.44 0.47 0.49 0.36 0.28 0.20 0.25 0.35 0.25 0.30 0.39 0.42 0.45 0.38 0.32 0.28 0.29 0.39 0.40 0.40 0.25 0.22 0.37 0.36 0.39
0.37 0.40 0.45 0.47 0.46 0.46 0.51 0.48 0.60 0.46 0.34 0.32 0.34 0.34 0.35 0.38 0.39 0.31 0.41 0.39 0.42 0.41 0.31 0.32 0.24 0.23 0.27 0.29 0.37 0.36 0.39 0.39 0.40 0.43 0.35 0.30 0.46 0.43 0.32 0.39 0.44 0.46 0.46 0.49
0.36 0.41 0.45 0.49 0.48 0.47 0.53 0.45 0.59 0.58 0.41 0.33 0.43 0.49 0.51 0.49 0.50 0.43 0.44 0.41 0.43 0.43 0.35 0.37 0.33 0.24 0.28 0.26 0.25 0.41 0.35 0.40 0.39 0.40 0.44 0.58 0.58 0.51 0.54 0.53 0.51 0.54 0.55 0.59
0.37 0.43 0.45 0.50 0.47 0.49 0.53 0.49 0.57 0.50 0.38 0.35 0.36 0.32 0.43 0.55 0.57 0.62 0.40 0.46 0.51 0.49 0.57 0.43 0.41 0.27 0.28 0.28 0.27 0.31 0.38 0.50 0.41 0.42 0.43 0.48 0.56 0.63 0.62 0.59 0.57 0.60 0.62 0.57
0.38 0.44 0.47 0.49 0.46 0.50 0.53 0.48 0.57 0.50 0.40 0.30 0.31 0.54 0.48 0.60 0.62 0.60 0.59 0.54 0.56 0.54 0.52 0.45 0.41 0.41 0.36 0.25 0.30 0.32 0.36 0.47 0.42 0.41 0.45 0.49 0.52 0.57 0.59 0.60 0.62 0.61 0.63 0.60
0.42 0.47 0.47 0.47 0.45 0.50 0.54 0.55 0.56 0.60 0.42 0.32 0.38 0.49 0.53 0.58 0.59 0.57 0.58 0.56 0.52 0.48 0.43 0.42 0.39 0.46 0.43 0.35 0.32 0.29 0.37 0.34 0.31 0.28 0.41 0.47 0.49 0.58 0.61 0.58 0.57 0.58 0.57 0.55
0.48 0.47 0.46 0.43 0.47 0.53 0.50 0.39 0.52 0.59 0.57 0.39 0.30 0.47 0.48 0.54 0.55 0.53 0.52 0.54 0.53 0.50 0.45 0.44 0.44 0.48 0.46 0.34 0.33 0.37 0.37 0.41 0.48 0.40 0.49 0.55 0.60 0.64 0.66 0.65 0.63 0.62 0.63 0.64
0.47 0.46 0.42 0.46 0.52 0.53 0.42 0.39 0.52 0.63 0.60 0.40 0.33 0.33 0.45 0.52 0.53 0.52 0.51 0.54 0.50 0.49 0.46 0.43 0.45 0.43 0.49 0.43 0.36 0.39 0.45 0.49 0.50 0.52 0.53 0.52 0.59 0.60 0.69 0.73 0.73 0.75 0.76 0.74
0.46 0.43 0.46 0.52 0.57 0.56 0.46 0.55 0.61 0.63 0.49 0.46 0.32 0.31 0.38 0.51 0.42 0.41 0.49 0.43 0.46 0.47 0.44 0.46 0.43 0.48 0.47 0.37 0.40 0.46 0.51 0.51 0.51 0.53 0.58 0.60 0.63 0.63 0.64 0.64 0.62 0.57 0.54 0.53
0.43 0.43 0.50 0.53 0.49 0.41 0.46 0.60 0.63 0.64 0.50 0.35 0.33 0.28 0.29 0.48 0.43 0.43 0.42 0.43 0.36 0.43 0.38 0.39 0.42 0.38 0.34 0.40 0.44 0.46 0.51 0.53 0.53 0.57 0.59 0.57 0.53 0.55 0.59 0.54 0.49 0.47 0.47 0.47
0.43 0.44 0.41 0.34 0.44 0.60 0.60 0.51 0.43 0.43 0.45 0.44 0.32 0.33 0.29 0.41 0.40 0.37 0.35 0.36 0.31 0.26 0.31 0.42 0.37 0.35 0.44 0.48 0.50 0.49 0.51 0.51 0.50 0.47 0.47 0.48 0.46 0.44 0.42 0.40 0.41 0.40 0.40 0.39
0.41 0.35 0.35 0.50 0.61 0.50 0.44 0.36 0.34 0.36 0.32 0.36 0.35 0.32 0.29 0.37 0.32 0.30 0.36 0.32 0.31 0.23 0.25 0.27 0.28 0.29 0.36 0.44 0.46 0.49 0.48 0.46 0.42 0.41 0.41 0.41 0.40 0.38 0.37 0.37 0.37 0.35 0.33 0.31
0.43 0.44 0.50 0.51 0.43 0.37 0.32 0.30 0.33 0.30 0.26 0.33 0.32 0.28 0.32 0.32 0.34 0.28 0.26 0.21 0.23 0.19 0.28 0.26 0.24 0.28 0.32 0.33 0.32 0.33 0.35 0.37 0.34 0.34 0.33 0.33 0.32 0.31 0.30 0.30 0.30 0.30 0.30 0.30
0.47 0.42 0.36 0.35 0.34 0.26 0.24 0.22 0.24 0.25 0.28 0.34 0.30 0.25 0.27 0.27 0.27 0.22 0.19 0.17 0.18 0.21 0.16 0.18 0.24 0.25 0.25 0.25 0.26 0.26 0.28 0.28 0.28 0.29 0.30 0.31 0.30 0.31 0.30 0.30 0.31 0.32 0.30 0.29
0.34 0.31 0.26 0.27 0.24 0.26 0.24 0.25 0.25 0.30 0.32 0.32 0.29 0.25 0.24 0.23 0.18 0.17 0.14 0.17 0.17 0.12 0.10 0.15 0.19 0.19 0.21 0.23 0.24 0.23 0.22 0.23 0.23 0.23 0.24 0.24 0.24 0.24 0.26 0.27 0.28 0.26 0.25 0.28
0.32 0.34 0.24 0.24 0.30 0.27 0.28 0.29 0.29 0.32 0.36 0.32 0.26 0.23 0.21 0.17 0.15 0.15 0.13 0.10 0.08 0.08 0.11 0.16 0.19 0.20 0.20 0.19 0.20 0.18 0.17 0.17 0.17 0.18 0.17 0.17 0.18 0.18 0.20 0.25 0.27 0.28 0.27 0.27
0.36 0.32 0.26 0.27 0.27 0.26 0.26 0.28 0.30 0.34 0.33 0.29 0.25 0.19 0.15 0.13 0.13 0.10 0.07 0.07 0.06 0.09 0.14 0.16 0.18 0.17 0.17 0.17 0.17 0.17 0.18 0.17 0.16 0.16 0.16 0.16 0.17 0.17 0.18 0.20 0.19 0.20 0.20 0.20
0.34 0.30 0.34 0.31 0.28 0.26 0.28 0.30 0.31 0.35 0.29 0.21 0.19 0.15 0.12 0.15 0.09 0.06 0.09 0.08 0.09 0.12 0.15 0.16 0.16 0.16 0.16 0.18 0.19 0.20 0.20 0.17 0.17 0.17 0.18 0.18 0.19 0.20 0.18 0.15 0.15 0.17 0.18 0.18
Wind_Speed
37 36 36 36 37 37 37 35 34 32 32 35 36 41 45 43 52 50 49 52 47 47 46 40 47 47 43 34 36 39 42 33 32 35 32 35 39 37 34 28 29 28 25 22
38 38 38 38 38 37 37 36 39 38 38 38 41 45 48 48 50 49 48 49 51 47 48 41 43 46 45 38 34 37 38 38 33 32 28 31 36 39 38 36 29 32 26 24
40 39 39 39 38 38 38 38 37 36 37 41 43 44 46 45 40 43 45 46 45 48 51 44 38 38 40 41 41 40 34 39 42 37 41 30 34 37 39 37 33 30 31 25
41 41 41 41 40 39 38 38 39 40 39 38 38 37 35 37 37 34 37 40 49 48 47 48 46 44 40 37 37 36 38 39 41 44 40 32 33 35 38 40 40 35 31 31
43 42 42 42 41 40 40 39 37 37 40 38 36 34 34 33 32 33 36 31 38 43 53 48 41 33 29 34 30 36 37 38 39 41 38 39 36 35 37 41 38 40 36 32
44 44 43 43 41 40 39 39 39 36 35 33 30 28 26 22 22 24 31 36 34 38 45 49 47 38 36 35 33 31 35 37 34 38 37 39 37 38 38 35 37 36 37 34
45 44 44 43 42 40 38 35 32 29 31 29 30 30 30 28 27 26 28 29 28 34 34 41 43 42 36 36 37 35 32 39 36 35 33 35 38 39 39 37 35 36 34 30
45 44 43 42 39 36 34 32 30 28 28 28 27 27 27 28 25 23 25 28 32 30 35 36 36 40 39 39 38 38 37 35 34 34 34 29 31 29 37 38 38 36 33 28
44 42 41 39 34 31 29 28 30 26 25 27 27 27 26 23 20 23 24 23 22 24 26 35 38 31 33 31 29 33 36 35 33 34 36 37 34 29 29 29 35 37 36 31
42 40 37 33 29 25 23 24 27 25 23 24 24 22 21 20 19 18 12 12 17 27 25 31 40 35 27 28 31 30 31 30 31 30 33 32 26 27 26 29 28 29 31 31
38 35 31 28 25 23 21 21 24 24 22 25 26 25 23 20 19 17 12 14 13 23 25 25 34 37 39 36 28 29 29 30 26 25 25 27 27 27 29 24 25 25 26 28
33 29 26 24 22 22 20 18 19 22 22 20 19 21 23 22 23 19 16 13 7 16 22 24 26 35 36 40 35 32 32 31 29 27 22 19 25 23 24 23 24 24 23 25
27 24 22 20 20 20 20 19 15 18 19 21 23 22 22 23 23 20 16 13 11 12 16 24 22 29 40 35 40 34 35 29 31 28 28 25 23 22 23 23 22 23 23 24
22 20 19 18 19 19 19 18 17 19 15 14 15 16 16 17 19 19 19 18 17 15 17 22 27 21 28 40 37 37 32 31 30 25 26 25 25 25 25 24 23 23 22 23
18 17 17 16 17 17 17 18 18 21 18 10 8 11 14 15 16 17 18 18 18 13 13 16 26 23 20 25 31 34 35 35 32 30 31 28 27 25 24 24 24 24 23 23
15 15 15 15 14 14 10 12 16 20 20 13 11 9 9 10 13 15 14 14 12 13 13 16 21 25 22 21 24 24 29 30 30 28 29 27 25 23 23 22 22 23 23 22
13 13 13 13 14 14 14 12 10 11 18 12 9 9 8 8 8 9 8 7 6 8 7 13 18 24 22 18 18 19 21 22 23 24 25 24 25 23 23 23 23 22 21 22
11 11 11 12 13 15 14 14 13 13 16 12 9 6 5 5 5 7 5 6 5 2 3 5 14 18 20 18 18 18 19 19 20 21 20 22 22 22 22 21 20 20 20 20
10 10 10 11 15 13 12 12 13 16 14 10 9 6 4 5 5 6 5 5 3 3 4 3 6 15 14 20 18 16 17 19 17 17 18 19 19 19 19 20 19 19 19 20
8 9 11 13 13 12 13 13 13 16 12 11 8 6 4 5 6 4 3 3 3 5 5 6 8 10 13 16 16 16 16 17 17 17 18 17 17 18 18 18 18 18 19 20
12 13 13 10 13 13 12 13 14 13 10 10 7 7 5 5 6 5 4 5 5 5 5 5 6 9 11 13 13 15 16 15 13 13 14 14 15 15 16 16 17 18 19 20
12 11 10 9 12 12 12 13 13 11 10 9 8 7 5 6 6 6 6 5 4 5 6 6 7 9 9 9 9 9 9 10 10 9 9 10 11 12 14 16 18 19 20 21
13 14 11 11 12 13 13 14 13 9 10 10 10 8 6 7 6 6 4 4 4 7 4 5 8 11 9 9 8 7 6 6 6 5 6 7 9 11 13 15 17 19 21 22
15 14 11 11 13 13 11 13 11 8 9 13 11 7 4 5 6 5 5 6 6 6 6 7 12 11 9 8 6 6 4 4 3 3 5 7 9 11 14 16 18 20 22 23
14 12 12 12 10 11 9 9 11 10 12 13 9 5 4 5 6 5 7 6 5 5 7 13 13 13 11 9 7 5 2 2 2 3 5 7 10 12 14 16 18 20 22 25
12 13 11 11 11 10 11 10 12 11 13 10 6 4 5 6 7 7 5 6 6 10 12 14 14 12 9 7 5 2 1 3 5 7 9 11 12 14 16 18 20 22 24 26
13 12 11 11 10 9 10 11 12 14 12 7 5 6 8 10 8 8 9 11 14 16 16 14 12 10 8 5 2 0 2 5 7 9 11 12 14 15 17 19 21 23 25 26
Wind_Direction
295 294 292 291 291 290 288 285 284 283 279 277 275 274 273 275 273 267 262 255 252 250 248 250 241 240 236 231 232 224 226 230 229 227 230 227 225 224 220 225 222 233 238 236
294 293 291 290 290 289 287 283 282 280 278 278 277 276 276 275 273 263 257 251 244 243 243 246 242 239 236 236 234 225 223 224 228 227 223 225 227 222 224 227 230 228 228 228
293 292 290 289 289 287 284 282 283 281 277 277 278 279 277 274 267 261 254 248 243 240 238 237 239 239 235 235 231 230 225 225 226 225 226 222 224 224 223 221 226 226 228 223
291 290 290 287 287 286 282 279 279 278 279 279 275 274 274 270 265 258 252 242 238 235 236 233 236 237 239 234 230 228 224 225 227 230 229 227 226 224 221 223 228 226 228 228
289 289 290 288 284 285 280 278 279 278 275 274 273 268 264 264 267 256 252 242 242 236 230 229 228 231 236 230 227 224 224 226 226 229 229 226 226 223 222 225 227 231 233 236
288 288 289 288 284 282 281 278 275 271 270 268 265 258 256 256 271 262 247 245 244 240 231 226 227 236 235 236 236 230 221 220 220 225 224 225 228 223 222 223 225 228 230 234
288 287 288 289 284 280 277 276 271 263 264 262 259 256 250 256 262 262 257 247 246 241 235 228 228 230 236 235 232 226 226 219 219 224 221 225 227 229 228 230 228 229 232 233
288 286 287 288 283 277 270 272 260 259 260 261 255 253 249 257 259 260 256 254 245 246 234 226 227 224 234 232 228 223 220 222 219 220 217 223 220 223 220 225 229 228 227 229
287 286 285 285 280 272 267 270 251 251 256 247 251 255 247 249 257 269 258 256 246 225 222 214 212 213 213 210 217 215 216 218 223 217 219 222 225 220 221 225 232 228 227 224
285 284 282 279 272 264 262 275 241 244 250 243 247 238 241 246 258 261 262 279 249 213 215 215 210 212 208 212 212 207 205 209 216 217 217 221 218 218 215 214 232 217 219 218
283 278 277 271 262 256 260 267 243 238 244 247 244 239 239 246 242 259 259 294 236 208 213 215 212 214 214 212 213 217 205 204 206 215 219 217 217 216 219 227 230 221 219 215
278 271 269 263 252 248 254 266 247 239 239 237 234 235 242 246 252 249 256 267 266 219 212 216 217 215 211 214 220 216 220 219 215 216 212 215 218 223 223 226 222 219 215 211
269 262 261 253 247 246 247 254 255 232 235 241 237 243 247 240 237 242 249 255 252 227 224 222 221 220 214 213 216 217 218 216 221 220 221 222 222 221 223 221 219 214 212 211
256 253 251 248 245 247 247 245 245 226 220 229 235 234 240 237 236 236 241 251 251 258 236 223 218 223 216 219 219 219 218 211 213 218 217 218 223 225 223 220 217 215 215 216
248 244 243 244 247 247 240 245 224 215 210 221 230 241 235 233 236 244 247 246 246 242 230 227 217 218 215 214 216 222 220 224 225 230 222 227 221 222 220 218 218 219 219 221
239 239 241 245 239 220 246 210 207 214 215 226 228 227 228 239 246 249 243 248 239 233 239 230 211 204 213 206 212 219 221 224 223 225 218 215 212 214 215 216 218 222 222 222
234 236 238 238 221 221 204 193 192 207 197 204 214 224 228 242 245 223 225 216 229 228 235 214 205 200 207 209 206 206 207 206 200 202 201 204 211 220 222 222 222 220 220 225
228 233 230 225 223 207 206 209 210 195 185 194 206 218 227 216 212 199 202 214 214 234 197 188 201 200 202 205 203 191 190 190 192 202 209 207 213 215 214 214 214 213 217 222
227 222 231 205 185 190 194 192 186 181 185 194 205 210 223 199 195 201 206 213 199 178 140 140 164 189 194 193 193 195 200 197 196 199 199 194 195 200 203 208 214 220 227 234
217 199 178 174 179 181 171 173 177 173 189 196 205 204 208 196 182 175 195 186 188 171 144 135 118 136 173 179 184 191 182 178 185 183 181 189 195 203 208 215 224 231 237 242
168 165 166 172 172 170 169 170 172 178 187 194 199 200 188 186 179 164 163 147 154 167 160 163 150 128 126 141 160 178 188 194 188 182 189 198 203 210 218 227 236 242 246 250
170 176 176 170 169 173 176 172 175 184 188 184 185 181 185 176 177 159 153 153 150 139 141 144 152 153 145 143 140 136 153 166 174 181 191 202 213 225 235 241 245 250 254 256
172 167 167 164 168 176 181 178 185 189 182 177 168 157 160 166 174 162 162 160 156 152 156 156 150 152 147 140 141 142 148 156 165 183 202 220 235 245 250 253 256 260 261 262
166 171 175 172 171 180 180 189 182 175 174 167 163 153 152 160 170 173 163 150 161 165 158 156 158 157 152 148 145 145 145 154 179 217 237 250 257 260 262 263 264 264 266 267
172 176 176 180 175 181 179 180 179 171 167 166 163 160 164 156 156 166 160 165 161 157 152 153 156 153 150 148 147 146 154 182 234 261 273 276 277 278 277 276 274 274 274 274
181 182 180 176 178 179 181 179 173 169 167 169 181 182 173 159 150 145 152 158 149 143 143 145 148 150 149 148 146 149 219 284 293 295 293 290 287 286 285 285 283 281 280 279
175 177 179 179 180 177 178 173 173 172 171 175 176 166 154 149 142 135 127 123 127 131 135 137 139 140 142 142 141 291 305 304 304 303 303 301 299 296 292 290 289 287 286 283